Location: Julian California
(33.0790°N, 116.6010°W)
Time: 10:29:39
(UTC-07:00)

NOSS 3-4 (C) - Pass Details

Date: 19 May 2017
Orbit: 957 x 1255 km, 63.4° (Epoch: 22 September)

Event Time Altitude Azimuth Distance (km) Brightness Sun altitude
Rises 20:00:12 0° 199° (SSW) 3,629 6.4 -4.2°
Reaches altitude 10° 20:02:46 10° 195° (SSW) 2,676 5.7 -4.7°
Maximum altitude 20:08:53 62° 116° (ESE) 1,068 3.5 -5.8°
Drops below altitude 10° 20:15:08 10° 37° (NE) 2,736 5.8 -7.0°
Sets 20:17:46 0° 34° (NE) 3,716 6.5 -7.5°
